,,,PA_Meas_PMT16A,,PR_Meas_QMR101_102,,RH_Meas_QMH101,,SR_Meas_QMS101,,TA_Meas_QMH101,,GenWind,,GenWind,
date,time,status,PA,status,PR,status,RH,status,SR,status,TA,status,DirAvg,status,SpdAvg,
2012-03-28, 00:00:04,VALID,1005.5,VALID,0,VALID,93.4233,VALID,0,VALID,23.7017,VALID,335,VALID,0.791016,
2012-03-28, 00:01:04,VALID,1005.49,VALID,0.5,VALID,93.4919,VALID,0,VALID,23.7,VALID,328,VALID,1.06289,
2012-03-28, 00:02:04,VALID,1005.49,VALID,0,VALID,93.3851,VALID,0,VALID,23.7194,VALID,310,VALID,0.903125,
2012-03-28, 00:03:04,VALID,1005.48,VALID,0,VALID,93.4385,VALID,0.0815089,VALID,23.7194,VALID,272,VALID,0.840625,
2012-03-28, 00:04:04,VALID,1005.51,VALID,0,VALID,93.3012,VALID,0,VALID,23.7389,VALID,325,VALID,0.740625,
2012-03-28, 00:05:04,VALID,1005.51,VALID,0,VALID,93.2173,VALID,0,VALID,23.7407,VALID,302,VALID,1.73555,
2012-03-28, 00:06:04,VALID,1005.51,VALID,0,VALID,93.3241,VALID,0,VALID,23.7601,VALID,323,VALID,0.765234,
2012-03-28, 00:07:04,VALID,1005.51,VALID,0,VALID,93.2859,VALID,0,VALID,23.7601,VALID,284,VALID,1.22852,
2012-03-28, 00:08:04,VALID,1005.51,VALID,0,VALID,93.3012,VALID,0,VALID,23.7389,VALID,320,VALID,1.02578,
2012-03-28, 00:09:04,VALID,1005.49,VALID,0,VALID,93.5301,VALID,0,VALID,23.7796,VALID,287,VALID,0.586328,
2012-03-28, 00:10:04,VALID,1005.51,VALID,0,VALID,93.3851,VALID,0,VALID,23.7389,VALID,292,VALID,0.939453,
2012-03-28, 00:11:04,VALID,1005.52,VALID,0,VALID,93.1563,VALID,0,VALID,23.7601,VALID,298,VALID,1.37344,
2012-03-28, 00:12:04,VALID,1005.53,VALID,0,VALID,93.3851,VALID,0,VALID,23.7796,VALID,282,VALID,1.01602,
2012-03-28, 00:13:04,VALID,1005.53,VALID,0,VALID,93.2936,VALID,0,VALID,23.7389,VALID,290,VALID,1.66406,
2012-03-28, 00:14:04,VALID,1005.52,VALID,0,VALID,93.469,VALID,0,VALID,23.7796,VALID,290,VALID,0.398047,
2012-03-28, 00:15:04,VALID,1005.54,VALID,0,VALID,93.6064,VALID,0,VALID,23.7991,VALID,270,VALID,0.241797,
2012-03-28, 00:16:04,VALID,1005.53,VALID,0,VALID,93.7437,VALID,0,VALID,23.7778,VALID,246,VALID,0.516406,
2012-03-28, 00:17:04,VALID,1005.54,VALID,0,VALID,93.6369,VALID,0,VALID,23.7991,VALID,270,VALID,0.679297,
2012-03-28, 00:18:04,VALID,1005.5,VALID,0,VALID,93.614,VALID,0.0815089,VALID,23.7991,VALID,296,VALID,0.473047,
2012-03-28, 00:19:04,VALID,1005.5,VALID,0.5,VALID,93.614,VALID,0,VALID,23.7796,VALID,289,VALID,1.44609,
2012-03-28, 00:20:04,VALID,1005.5,VALID,0,VALID,93.5987,VALID,0,VALID,23.8009,VALID,274,VALID,0.944531,
2012-03-28, 00:21:04,VALID,1005.53,VALID,0,VALID,93.5987,VALID,0,VALID,23.7796,VALID,299,VALID,0.883984,
2012-03-28, 00:22:04,VALID,1005.47,VALID,0,VALID,93.6369,VALID,0,VALID,23.7991,VALID,269,VALID,0.866016,
2012-03-28, 00:23:04,VALID,1005.48,VALID,0,VALID,93.5911,VALID,0,VALID,23.7991,VALID,289,VALID,0.839063,
2012-03-28, 00:24:04,VALID,1005.47,VALID,0,VALID,93.5377,VALID,0,VALID,23.7991,VALID,295,VALID,1.48008,
2012-03-28, 00:25:04,VALID,1005.41,VALID,0,VALID,93.4614,VALID,0,VALID,23.8185,VALID,289,VALID,1.15664,
2012-03-28, 00:26:04,VALID,1005.4,VALID,0,VALID,93.5148,VALID,0,VALID,23.8593,VALID,287,VALID,0.900781,
2012-03-28, 00:27:04,VALID,1005.35,VALID,0,VALID,93.469,VALID,0,VALID,23.8575,VALID,300,VALID,1.2082,
2012-03-28, 00:28:04,VALID,1005.31,VALID,0,VALID,93.3165,VALID,0,VALID,23.8575,VALID,286,VALID,1.42031,
2012-03-28, 00:29:04,VALID,1005.3,VALID,0,VALID,93.3699,VALID,0,VALID,23.8964,VALID,298,VALID,1.43359,
2012-03-28, 00:30:04,VALID,1005.3,VALID,0,VALID,93.4843,VALID,0,VALID,23.8946,VALID,297,VALID,0.569531,
2012-03-28, 00:31:04,VALID,1005.26,VALID,0,VALID,93.5301,VALID,0,VALID,23.914,VALID,273,VALID,0.651953,
2012-03-28, 00:32:04,VALID,1005.23,VALID,0,VALID,93.4996,VALID,0,VALID,23.9548,VALID,285,VALID,1.9793,
2012-03-28, 00:33:04,VALID,1005.23,VALID,0,VALID,93.5377,VALID,0,VALID,23.9742,VALID,292,VALID,1.575,
2012-03-28, 00:34:04,VALID,1005.23,VALID,0,VALID,93.5377,VALID,0,VALID,24.015,VALID,316,VALID,0.721484,
2012-03-28, 00:35:04,VALID,1005.24,VALID,0,VALID,93.4767,VALID,0,VALID,24.0132,VALID,295,VALID,2.83281,
2012-03-28, 00:36:04,VALID,1005.28,VALID,0,VALID,93.3546,VALID,0,VALID,24.0929,VALID,295,VALID,2.37539,
2012-03-28, 00:37:04,VALID,1005.27,VALID,0,VALID,93.3546,VALID,0,VALID,24.091,VALID,294,VALID,1.94297,
2012-03-28, 00:38:04,VALID,1005.36,VALID,0,VALID,93.3394,VALID,0,VALID,24.1105,VALID,282,VALID,1.55195,
2012-03-28, 00:39:04,VALID,1005.39,VALID,0,VALID,93.4233,VALID,0,VALID,24.13,VALID,295,VALID,1.99375,
2012-03-28, 00:40:04,VALID,1005.38,VALID,0,VALID,93.4919,VALID,0,VALID,24.1494,VALID,279,VALID,1.80352,
2012-03-28, 00:41:04,VALID,1005.42,VALID,0,VALID,93.5148,VALID,0,VALID,24.1689,VALID,321,VALID,1.8457,
2012-03-28, 00:42:04,VALID,1005.43,VALID,0,VALID,93.4919,VALID,0.0815089,VALID,24.1865,VALID,297,VALID,2.08828,
2012-03-28, 00:43:04,VALID,1005.44,VALID,0,VALID,93.4767,VALID,0,VALID,24.2078,VALID,273,VALID,1.50781,
2012-03-28, 00:44:04,VALID,1005.45,VALID,0,VALID,93.614,VALID,0.0815089,VALID,24.2468,VALID,283,VALID,0.800781,
2012-03-28, 00:45:04,VALID,1005.44,VALID,0,VALID,93.469,VALID,0,VALID,24.2273,VALID,309,VALID,1.37188,
2012-03-28, 00:46:04,VALID,1005.47,VALID,0,VALID,93.4843,VALID,0,VALID,24.2468,VALID,314,VALID,0.972266,
2012-03-28, 00:47:04,VALID,1005.49,VALID,0,VALID,93.4309,VALID,0,VALID,24.2468,VALID,305,VALID,1.58359,
2012-03-28, 00:48:04,VALID,1005.47,VALID,0,VALID,93.4767,VALID,0,VALID,24.2662,VALID,284,VALID,0.84375,
2012-03-28, 00:49:04,VALID,1005.5,VALID,0,VALID,93.4004,VALID,0,VALID,24.2857,VALID,283,VALID,1.55117,
2012-03-28, 00:50:04,VALID,1005.53,VALID,0,VALID,93.4309,VALID,0,VALID,24.2857,VALID,300,VALID,0.844141,
2012-03-28, 00:51:04,VALID,1005.52,VALID,0,VALID,93.4767,VALID,0.0815089,VALID,24.3052,VALID,281,VALID,1.95313,
2012-03-28, 00:52:04,VALID,1005.56,VALID,0,VALID,93.5453,VALID,0,VALID,24.3265,VALID,298,VALID,0.714844,
2012-03-28, 00:53:04,VALID,1005.54,VALID,0,VALID,93.4843,VALID,0,VALID,24.2839,VALID,296,VALID,1.34336,
2012-03-28, 00:54:04,VALID,1005.56,VALID,0,VALID,93.5606,VALID,0,VALID,24.3459,VALID,290,VALID,1.22539,
2012-03-28, 00:55:04,VALID,1005.6,VALID,0,VALID,93.5682,VALID,0,VALID,24.3654,VALID,286,VALID,1.43789,
2012-03-28, 00:56:04,VALID,1005.62,VALID,0,VALID,93.4156,VALID,0,VALID,24.3246,VALID,291,VALID,1.66836,
2012-03-28, 00:57:04,VALID,1005.66,VALID,0,VALID,93.4767,VALID,0,VALID,24.3246,VALID,327,VALID,0.509375,
2012-03-28, 00:58:04,VALID,1005.69,VALID,0,VALID,93.5301,VALID,0,VALID,24.3849,VALID,280,VALID,0.898438,
2012-03-28, 00:59:04,VALID,1005.74,VALID,0,VALID,93.5453,VALID,0.0815089,VALID,24.3441,VALID,249,VALID,0.714844,
2012-03-28, 01:00:04,VALID,1005.74,VALID,0,VALID,93.5377,VALID,0,VALID,24.3654,VALID,285,VALID,1.77227,
2012-03-28, 01:01:04,VALID,1005.7,VALID,0.5,VALID,93.0266,VALID,0,VALID,24.2875,VALID,295,VALID,2.17852,
2012-03-28, 01:02:04,VALID,1005.7,VALID,0.5,VALID,92.813,VALID,0,VALID,24.1884,VALID,291,VALID,1.20313,
2012-03-28, 01:03:04,VALID,1005.71,VALID,0,VALID,93.0952,VALID,0,VALID,24.1087,VALID,3,VALID,0.258594,
2012-03-28, 01:04:04,VALID,1005.71,VALID,0,VALID,93.0647,VALID,0,VALID,24.0716,VALID,284,VALID,1.79844,
2012-03-28, 01:05:04,VALID,1005.65,VALID,0.5,VALID,93.2325,VALID,0,VALID,24.0326,VALID,285,VALID,0.88125,
2012-03-28, 01:06:04,VALID,1005.61,VALID,0.5,VALID,93.469,VALID,0,VALID,24.0132,VALID,1,VALID,0.862109,
2012-03-28, 01:07:04,VALID,1005.6,VALID,0.5,VALID,93.614,VALID,0,VALID,23.9742,VALID,283,VALID,0.587109,
2012-03-28, 01:08:04,VALID,1005.58,VALID,0.5,VALID,93.6674,VALID,0,VALID,23.9548,VALID,357,VALID,0.905859,
2012-03-28, 01:09:04,VALID,1005.51,VALID,0.5,VALID,93.7666,VALID,0.0815089,VALID,23.914,VALID,357,VALID,0.875391,
2012-03-28, 01:10:04,VALID,1005.47,VALID,0,VALID,93.8657,VALID,0,VALID,23.8964,VALID,357,VALID,0.841797,
2012-03-28, 01:11:04,VALID,1005.44,VALID,0,VALID,93.9954,VALID,0.0815089,VALID,23.8556,VALID,304,VALID,0.671875,
2012-03-28, 01:12:04,VALID,1005.42,VALID,0.5,VALID,94.0946,VALID,0,VALID,23.838,VALID,300,VALID,0.972656,
2012-03-28, 01:13:04,VALID,1005.42,VALID,0,VALID,94.1785,VALID,0,VALID,23.838,VALID,337,VALID,0.8125,
2012-03-28, 01:14:04,VALID,1005.4,VALID,0,VALID,94.2243,VALID,0,VALID,23.838,VALID,346,VALID,0.577734,
2012-03-28, 01:15:04,VALID,1005.38,VALID,0,VALID,94.2777,VALID,0,VALID,23.8185,VALID,346,VALID,0.718359,
2012-03-28, 01:16:04,VALID,1005.36,VALID,0,VALID,94.3387,VALID,0,VALID,23.8185,VALID,350,VALID,0.544922,
2012-03-28, 01:17:04,VALID,1005.36,VALID,0,VALID,94.3921,VALID,0,VALID,23.8185,VALID,342,VALID,0.533984,
2012-03-28, 01:18:04,VALID,1005.34,VALID,0,VALID,94.4227,VALID,0,VALID,23.8398,VALID,342,VALID,0.316406,
2012-03-28, 01:19:04,VALID,1005.31,VALID,0,VALID,94.4761,VALID,0,VALID,23.7991,VALID,342,VALID,0.369922,
2012-03-28, 01:20:04,VALID,1005.3,VALID,0,VALID,94.4761,VALID,0,VALID,23.7991,VALID,343,VALID,0.700391,
2012-03-28, 01:21:04,VALID,1005.24,VALID,0,VALID,94.5218,VALID,0,VALID,23.8203,VALID,354,VALID,0.950391,
2012-03-28, 01:22:04,VALID,1005.25,VALID,0,VALID,94.5676,VALID,0,VALID,23.7796,VALID,2,VALID,0.782812,
2012-03-28, 01:23:04,VALID,1005.24,VALID,0,VALID,94.5752,VALID,0,VALID,23.7991,VALID,350,VALID,0.983984,
2012-03-28, 01:24:04,VALID,1005.22,VALID,0,VALID,94.5981,VALID,0,VALID,23.7991,VALID,344,VALID,0.750781,
2012-03-28, 01:25:04,VALID,1005.19,VALID,0,VALID,94.5981,VALID,0,VALID,23.7991,VALID,354,VALID,0.815234,
2012-03-28, 01:26:04,VALID,1005.19,VALID,0,VALID,94.5905,VALID,0,VALID,23.8009,VALID,347,VALID,1.14688,
2012-03-28, 01:27:04,VALID,1005.21,VALID,0,VALID,94.5981,VALID,0,VALID,23.7796,VALID,348,VALID,0.482031,
2012-03-28, 01:28:04,VALID,1005.2,VALID,0,VALID,94.6134,VALID,0,VALID,23.7991,VALID,350,VALID,0.562891,
2012-03-28, 01:29:04,VALID,1005.21,VALID,0,VALID,94.621,VALID,0,VALID,23.8185,VALID,8,VALID,0.576953,
2012-03-28, 01:30:04,VALID,1005.22,VALID,0,VALID,94.6286,VALID,0,VALID,23.838,VALID,7,VALID,0.308203,
2012-03-28, 01:31:04,VALID,1005.22,VALID,0,VALID,94.6134,VALID,0.0815089,VALID,23.8787,VALID,31,VALID,0.651953,
2012-03-28, 01:32:04,VALID,1005.21,VALID,0,VALID,94.5981,VALID,0,VALID,23.8575,VALID,85,VALID,0.267188,
2012-03-28, 01:33:04,VALID,1005.27,VALID,0,VALID,94.6439,VALID,0,VALID,23.8769,VALID,350,VALID,0.620313,
2012-03-28, 01:34:04,VALID,1005.27,VALID,0,VALID,94.5829,VALID,0,VALID,23.8575,VALID,291,VALID,1.83867,
2012-03-28, 01:35:04,VALID,1005.31,VALID,0,VALID,94.5142,VALID,0,VALID,23.8769,VALID,343,VALID,0.948438,
2012-03-28, 01:36:04,VALID,1005.29,VALID,0,VALID,94.4761,VALID,0,VALID,23.9177,VALID,344,VALID,1.3668,
2012-03-28, 01:37:04,VALID,1005.33,VALID,0,VALID,94.4455,VALID,0,VALID,23.8751,VALID,252,VALID,0.901953,
2012-03-28, 01:38:04,VALID,1005.32,VALID,0,VALID,94.4608,VALID,0,VALID,23.9159,VALID,319,VALID,0.812891,
2012-03-28, 01:39:04,VALID,1005.29,VALID,0,VALID,94.3692,VALID,0,VALID,23.9371,VALID,302,VALID,0.777734,
2012-03-28, 01:40:04,VALID,1005.33,VALID,0,VALID,94.3311,VALID,0,VALID,23.9159,VALID,346,VALID,0.224609,
2012-03-28, 01:41:04,VALID,1005.34,VALID,0,VALID,94.3235,VALID,0,VALID,23.9566,VALID,301,VALID,1.16016,
2012-03-28, 01:42:04,VALID,1005.28,VALID,0,VALID,94.2548,VALID,0,VALID,23.9353,VALID,349,VALID,0.854688,
2012-03-28, 01:43:04,VALID,1005.29,VALID,0,VALID,94.1862,VALID,0,VALID,23.9371,VALID,320,VALID,0.823047,
2012-03-28, 01:44:04,VALID,1005.3,VALID,0,VALID,94.1404,VALID,0,VALID,23.9353,VALID,351,VALID,0.84375,
2012-03-28, 01:45:04,VALID,1005.26,VALID,0,VALID,94.1022,VALID,0,VALID,23.9548,VALID,352,VALID,0.523438,
2012-03-28, 01:46:04,VALID,1005.25,VALID,0,VALID,94.0336,VALID,0,VALID,23.9353,VALID,348,VALID,0.942969,
2012-03-28, 01:47:04,VALID,1005.24,VALID,0,VALID,94.0259,VALID,0,VALID,23.953,VALID,300,VALID,0.307813,
2012-03-28, 01:48:04,VALID,1005.24,VALID,0,VALID,94.0183,VALID,0,VALID,23.9548,VALID,348,VALID,0.910156,
2012-03-28, 01:49:04,VALID,1005.24,VALID,0.5,VALID,93.942,VALID,0,VALID,23.9548,VALID,297,VALID,1.34336,
2012-03-28, 01:50:04,VALID,1005.25,VALID,0,VALID,93.82,VALID,0,VALID,23.9742,VALID,320,VALID,1.07383,
2012-03-28, 01:51:04,VALID,1005.21,VALID,0,VALID,93.7818,VALID,0,VALID,23.953,VALID,292,VALID,1.61523,
2012-03-28, 01:52:04,VALID,1005.19,VALID,0,VALID,93.4614,VALID,0,VALID,23.9955,VALID,284,VALID,1.54883,
2012-03-28, 01:53:04,VALID,1005.22,VALID,0,VALID,93.4919,VALID,0,VALID,23.9937,VALID,267,VALID,0.614844,
2012-03-28, 01:54:04,VALID,1005.21,VALID,0,VALID,93.4767,VALID,0,VALID,23.9937,VALID,295,VALID,1.08828,
2012-03-28, 01:55:04,VALID,1005.15,VALID,0,VALID,93.4996,VALID,0,VALID,23.9937,VALID,290,VALID,0.242578,
2012-03-28, 01:56:04,VALID,1005.15,VALID,0,VALID,93.3699,VALID,0,VALID,23.9742,VALID,281,VALID,1.49414,
2012-03-28, 01:57:04,VALID,1005.16,VALID,0,VALID,93.3394,VALID,0,VALID,23.9955,VALID,278,VALID,1.12969,
2012-03-28, 01:58:04,VALID,1005.11,VALID,0,VALID,93.3012,VALID,0,VALID,23.9548,VALID,335,VALID,1.32695,
2012-03-28, 01:59:04,VALID,1005.09,VALID,0,VALID,93.3165,VALID,0,VALID,23.9742,VALID,233,VALID,0.492578,
2012-03-28, 02:00:04,VALID,1005.08,VALID,0,VALID,93.2707,VALID,0,VALID,23.9937,VALID,298,VALID,1.13047,
2012-03-28, 02:01:04,VALID,1005.06,VALID,0,VALID,93.1257,VALID,0,VALID,23.9742,VALID,291,VALID,0.632813,
2012-03-28, 02:02:04,VALID,1005.05,VALID,0,VALID,93.1868,VALID,0.0815089,VALID,23.9724,VALID,296,VALID,0.199609,
2012-03-28, 02:03:04,VALID,1005.04,VALID,0,VALID,93.1791,VALID,0,VALID,23.9742,VALID,43,VALID,0.0882813,
2012-03-28, 02:04:04,VALID,1005.01,VALID,0,VALID,93.202,VALID,0,VALID,23.9937,VALID,312,VALID,1.21367,
2012-03-28, 02:05:04,VALID,1005.02,VALID,0,VALID,93.2249,VALID,0,VALID,23.9742,VALID,343,VALID,0.0308594,
2012-03-28, 02:06:04,VALID,1004.99,VALID,0,VALID,93.1791,VALID,0,VALID,23.9548,VALID,342,VALID,0.886328,
2012-03-28, 02:07:04,VALID,1004.97,VALID,0,VALID,93.1639,VALID,0,VALID,23.9742,VALID,322,VALID,0.591016,
2012-03-28, 02:08:04,VALID,1004.91,VALID,0,VALID,93.1868,VALID,0,VALID,23.9742,VALID,299,VALID,0.701953,
2012-03-28, 02:09:04,VALID,1004.91,VALID,0,VALID,93.0037,VALID,0.0815089,VALID,24.0132,VALID,285,VALID,0.5125,
2012-03-28, 02:10:04,VALID,1004.89,VALID,0,VALID,92.9808,VALID,0,VALID,24.0345,VALID,263,VALID,0.892969,
2012-03-28, 02:11:04,VALID,1004.84,VALID,0,VALID,93.0037,VALID,0,VALID,24.0326,VALID,335,VALID,0.891016,
2012-03-28, 02:12:04,VALID,1004.81,VALID,0,VALID,93.0037,VALID,0,VALID,24.0326,VALID,275,VALID,1.06445,
2012-03-28, 02:13:04,VALID,1004.76,VALID,0,VALID,93.08,VALID,0,VALID,24.0716,VALID,339,VALID,0.529297,
2012-03-28, 02:14:04,VALID,1004.74,VALID,0,VALID,93.08,VALID,0,VALID,24.0716,VALID,333,VALID,1.16211,
2012-03-28, 02:15:04,VALID,1004.75,VALID,0,VALID,93.0418,VALID,0,VALID,24.0716,VALID,1,VALID,0.835938,
2012-03-28, 02:16:04,VALID,1004.7,VALID,0,VALID,93.0723,VALID,0.0815089,VALID,24.091,VALID,321,VALID,1.05469,
2012-03-28, 02:17:04,VALID,1004.69,VALID,0,VALID,93.0876,VALID,0,VALID,24.0697,VALID,349,VALID,1.2582,
2012-03-28, 02:18:04,VALID,1004.69,VALID,0,VALID,93.0876,VALID,0,VALID,24.091,VALID,348,VALID,0.396875,
2012-03-28, 02:19:04,VALID,1004.7,VALID,0,VALID,93.1715,VALID,0,VALID,24.1105,VALID,297,VALID,0.698438,
2012-03-28, 02:20:04,VALID,1004.72,VALID,0,VALID,93.1791,VALID,0,VALID,24.091,VALID,315,VALID,1.04883,
2012-03-28, 02:21:04,VALID,1004.74,VALID,0,VALID,93.1715,VALID,0,VALID,24.1105,VALID,312,VALID,1.30352,
2012-03-28, 02:22:04,VALID,1004.75,VALID,0,VALID,93.1715,VALID,0,VALID,24.091,VALID,359,VALID,0.346094,
2012-03-28, 02:23:04,VALID,1004.72,VALID,0,VALID,93.2173,VALID,0,VALID,24.1105,VALID,353,VALID,0.630859,
2012-03-28, 02:24:04,VALID,1004.75,VALID,0,VALID,93.1868,VALID,0.0815089,VALID,24.091,VALID,283,VALID,0.587891,
2012-03-28, 02:25:04,VALID,1004.76,VALID,0,VALID,93.2707,VALID,0.0815089,VALID,24.0716,VALID,296,VALID,0.481641,
2012-03-28, 02:26:04,VALID,1004.77,VALID,0,VALID,93.3546,VALID,0,VALID,24.0716,VALID,226,VALID,0.274609,
2012-03-28, 02:27:04,VALID,1004.79,VALID,0,VALID,93.347,VALID,0.0815089,VALID,24.0716,VALID,336,VALID,0.747656,
2012-03-28, 02:28:04,VALID,1004.76,VALID,0,VALID,93.4156,VALID,0,VALID,24.0503,VALID,305,VALID,0.453125,
2012-03-28, 02:29:04,VALID,1004.76,VALID,0,VALID,93.3775,VALID,0,VALID,24.0503,VALID,328,VALID,0.673437,
2012-03-28, 02:30:04,VALID,1004.74,VALID,0,VALID,93.3928,VALID,0,VALID,24.0716,VALID,331,VALID,0.560547,
2012-03-28, 02:31:04,VALID,1004.79,VALID,0,VALID,93.347,VALID,0,VALID,24.0716,VALID,357,VALID,0.780469,
2012-03-28, 02:32:04,VALID,1004.81,VALID,0,VALID,93.3546,VALID,0,VALID,24.0503,VALID,353,VALID,0.657812,
2012-03-28, 02:33:04,VALID,1004.79,VALID,0,VALID,93.3546,VALID,0,VALID,24.0716,VALID,307,VALID,0.928906,
2012-03-28, 02:34:04,VALID,1004.8,VALID,0,VALID,93.3165,VALID,0,VALID,24.0308,VALID,288,VALID,1.0793,
2012-03-28, 02:35:04,VALID,1004.81,VALID,0,VALID,93.3317,VALID,0,VALID,24.0521,VALID,293,VALID,0.566016,
2012-03-28, 02:36:04,VALID,1004.84,VALID,0,VALID,93.3165,VALID,0,VALID,24.0521,VALID,297,VALID,1.25312,
2012-03-28, 02:37:04,VALID,1004.85,VALID,0,VALID,93.2707,VALID,0,VALID,24.0716,VALID,356,VALID,0.658594,
2012-03-28, 02:38:05,VALID,1004.84,VALID,0,VALID,93.2402,VALID,0,VALID,24.0521,VALID,339,VALID,0.865234,
2012-03-28, 02:39:05,VALID,1004.87,VALID,0,VALID,93.202,VALID,0,VALID,24.0734,VALID,332,VALID,0.500391,
2012-03-28, 02:40:05,VALID,1004.86,VALID,0,VALID,93.1563,VALID,0.0815089,VALID,24.0716,VALID,285,VALID,1.23203,
2012-03-28, 02:41:05,VALID,1004.9,VALID,0,VALID,93.1715,VALID,0.0815089,VALID,24.0734,VALID,289,VALID,0.68125,
2012-03-28, 02:42:05,VALID,1004.92,VALID,0,VALID,93.2173,VALID,0,VALID,24.0308,VALID,294,VALID,0.398438,
2012-03-28, 02:43:05,VALID,1004.93,VALID,0,VALID,93.1944,VALID,0.0815089,VALID,24.0521,VALID,302,VALID,0.644531,
2012-03-28, 02:44:05,VALID,1004.9,VALID,0,VALID,93.2097,VALID,0.0815089,VALID,24.0521,VALID,292,VALID,0.278125,
2012-03-28, 02:45:05,VALID,1004.87,VALID,0,VALID,93.1868,VALID,0,VALID,24.0326,VALID,320,VALID,0.577344,
2012-03-28, 02:46:05,VALID,1004.88,VALID,0,VALID,93.1868,VALID,0,VALID,24.0521,VALID,297,VALID,0.883984,
2012-03-28, 02:47:05,VALID,1004.85,VALID,0,VALID,93.202,VALID,0,VALID,24.0132,VALID,305,VALID,0.3875,
2012-03-28, 02:48:05,VALID,1004.83,VALID,0,VALID,93.1563,VALID,0,VALID,24.0326,VALID,311,VALID,0.208203,
2012-03-28, 02:49:05,VALID,1004.82,VALID,0,VALID,93.0952,VALID,0,VALID,24.0326,VALID,259,VALID,0.364453,
2012-03-28, 02:50:05,VALID,1004.81,VALID,0,VALID,93.1181,VALID,0,VALID,24.0326,VALID,267,VALID,0.178125,
2012-03-28, 02:51:05,VALID,1004.77,VALID,0,VALID,93.1334,VALID,0,VALID,24.0326,VALID,259,VALID,0.0671875,
2012-03-28, 02:52:05,VALID,1004.75,VALID,0,VALID,93.1257,VALID,0,VALID,24.0132,VALID,305,VALID,0.667188,
2012-03-28, 02:53:05,VALID,1004.74,VALID,0,VALID,93.202,VALID,0.0815089,VALID,23.9919,VALID,329,VALID,0.448047,
2012-03-28, 02:54:05,VALID,1004.71,VALID,0,VALID,93.1334,VALID,0,VALID,23.9724,VALID,301,VALID,0.281641,
2012-03-28, 02:55:05,VALID,1004.72,VALID,0,VALID,93.0647,VALID,0.0815089,VALID,23.9937,VALID,279,VALID,1.32695,
2012-03-28, 02:56:05,VALID,1004.71,VALID,0,VALID,93.0647,VALID,0,VALID,23.9724,VALID,283,VALID,0.777344,
2012-03-28, 02:57:05,VALID,1004.69,VALID,0,VALID,92.9732,VALID,0,VALID,23.9724,VALID,282,VALID,1.38711,
2012-03-28, 02:58:05,VALID,1004.69,VALID,0,VALID,92.9732,VALID,0.0815089,VALID,23.9742,VALID,279,VALID,1.05508,
2012-03-28, 02:59:05,VALID,1004.7,VALID,0,VALID,92.935,VALID,0,VALID,23.9742,VALID,286,VALID,0.775391,
2012-03-28, 03:00:05,VALID,1004.72,VALID,0,VALID,92.8664,VALID,0,VALID,23.9761,VALID,304,VALID,0.510938,
2012-03-28, 03:01:05,VALID,1004.72,VALID,0,VALID,92.8358,VALID,0.0815089,VALID,23.953,VALID,289,VALID,0.894531,
2012-03-28, 03:02:05,VALID,1004.72,VALID,0,VALID,92.8511,VALID,0,VALID,23.9548,VALID,280,VALID,0.509375,
2012-03-28, 03:03:05,VALID,1004.72,VALID,0,VALID,92.9274,VALID,0.0815089,VALID,23.9742,VALID,337,VALID,0.438281,
2012-03-28, 03:04:05,VALID,1004.71,VALID,0,VALID,92.935,VALID,0.0815089,VALID,23.9742,VALID,211,VALID,0.389844,
2012-03-28, 03:05:05,VALID,1004.71,VALID,0,VALID,92.9884,VALID,0.0815089,VALID,23.9548,VALID,210,VALID,0.186719,
2012-03-28, 03:06:05,VALID,1004.71,VALID,0,VALID,93.0342,VALID,0,VALID,23.9548,VALID,298,VALID,0.849219,
2012-03-28, 03:07:05,VALID,1004.68,VALID,0,VALID,93.0723,VALID,0,VALID,23.9761,VALID,270,VALID,0.00585938,
2012-03-28, 03:08:05,VALID,1004.66,VALID,0,VALID,93.0342,VALID,0,VALID,23.9548,VALID,290,VALID,0.328516,
2012-03-28, 03:09:05,VALID,1004.68,VALID,0,VALID,93.0723,VALID,0,VALID,23.9548,VALID,359,VALID,0.293359,
2012-03-28, 03:10:05,VALID,1004.64,VALID,0,VALID,93.08,VALID,0,VALID,23.8946,VALID,350,VALID,0.516016,
2012-03-28, 03:11:05,VALID,1004.64,VALID,0,VALID,93.0952,VALID,0,VALID,23.9353,VALID,350,VALID,0,
2012-03-28, 03:12:05,VALID,1004.63,VALID,0,VALID,93.1944,VALID,0.0815089,VALID,23.9159,VALID,349,VALID,0.125,
2012-03-28, 03:13:05,VALID,1004.62,VALID,0,VALID,93.0952,VALID,0,VALID,23.9159,VALID,328,VALID,0.601563,
2012-03-28, 03:14:05,VALID,1004.6,VALID,0,VALID,93.0647,VALID,0.0815089,VALID,23.8751,VALID,331,VALID,0.423047,
2012-03-28, 03:15:05,VALID,1004.61,VALID,0,VALID,93.0723,VALID,0.0815089,VALID,23.8964,VALID,344,VALID,0.992188,
2012-03-28, 03:16:05,VALID,1004.56,VALID,0,VALID,92.8892,VALID,0.0815089,VALID,23.8964,VALID,313,VALID,1.20117,
2012-03-28, 03:17:05,VALID,1004.57,VALID,0,VALID,92.9045,VALID,0,VALID,23.8751,VALID,272,VALID,0.549219,
2012-03-28, 03:18:05,VALID,1004.57,VALID,0,VALID,92.8206,VALID,0.0815089,VALID,23.9159,VALID,352,VALID,0.718359,
2012-03-28, 03:19:05,VALID,1004.54,VALID,0,VALID,92.8511,VALID,0,VALID,23.9159,VALID,336,VALID,0.130859,
2012-03-28, 03:20:05,VALID,1004.55,VALID,0,VALID,92.9045,VALID,0,VALID,23.8964,VALID,336,VALID,0.456641,
2012-03-28, 03:21:05,VALID,1004.54,VALID,0,VALID,92.9503,VALID,0,VALID,23.8946,VALID,335,VALID,0,
2012-03-28, 03:22:05,VALID,1004.51,VALID,0,VALID,92.874,VALID,0.0815089,VALID,23.8964,VALID,347,VALID,0.790625,
2012-03-28, 03:23:05,VALID,1004.49,VALID,0,VALID,92.8664,VALID,0.0815089,VALID,23.8769,VALID,351,VALID,0.482812,
2012-03-28, 03:24:05,VALID,1004.48,VALID,0,VALID,92.7977,VALID,0,VALID,23.8769,VALID,279,VALID,0.949219,
2012-03-28, 03:25:05,VALID,1004.49,VALID,0,VALID,92.8282,VALID,0.0815089,VALID,23.8769,VALID,349,VALID,0.723828,
2012-03-28, 03:26:05,VALID,1004.48,VALID,0,VALID,92.7596,VALID,0.0815089,VALID,23.8964,VALID,248,VALID,0.396094,
2012-03-28, 03:27:05,VALID,1004.47,VALID,0,VALID,92.5917,VALID,0,VALID,23.8769,VALID,296,VALID,1.05313,
2012-03-28, 03:28:05,VALID,1004.49,VALID,0,VALID,92.462,VALID,0,VALID,23.8556,VALID,336,VALID,0.127734,
2012-03-28, 03:29:05,VALID,1004.49,VALID,0,VALID,92.4391,VALID,0,VALID,23.8964,VALID,301,VALID,0.148828,
2012-03-28, 03:30:05,VALID,1004.46,VALID,0,VALID,92.4925,VALID,0,VALID,23.8964,VALID,288,VALID,0.254297,
2012-03-28, 03:31:05,VALID,1004.45,VALID,0,VALID,92.5154,VALID,0,VALID,23.8751,VALID,334,VALID,0.0976563,
2012-03-28, 03:32:05,VALID,1004.48,VALID,0,VALID,92.5231,VALID,0,VALID,23.8769,VALID,299,VALID,0.401953,
2012-03-28, 03:33:05,VALID,1004.49,VALID,0,VALID,92.6375,VALID,0.0815089,VALID,23.8769,VALID,299,VALID,0,
2012-03-28, 03:34:05,VALID,1004.5,VALID,0,VALID,92.6909,VALID,0.0815089,VALID,23.8575,VALID,280,VALID,0.430078,
2012-03-28, 03:35:05,VALID,1004.55,VALID,0,VALID,92.7748,VALID,0,VALID,23.838,VALID,269,VALID,0.000390625,
2012-03-28, 03:36:05,VALID,1004.55,VALID,0,VALID,92.8435,VALID,0.0815089,VALID,23.838,VALID,269,VALID,0.410156,
2012-03-28, 03:37:05,VALID,1004.56,VALID,0,VALID,92.8587,VALID,0.0815089,VALID,23.838,VALID,279,VALID,0.513672,
2012-03-28, 03:38:05,VALID,1004.59,VALID,0,VALID,92.935,VALID,0.0815089,VALID,23.8398,VALID,282,VALID,0,
2012-03-28, 03:39:05,VALID,1004.63,VALID,0,VALID,92.9503,VALID,0,VALID,23.8185,VALID,282,VALID,0,
2012-03-28, 03:40:05,VALID,1004.63,VALID,0,VALID,92.9808,VALID,0,VALID,23.7991,VALID,282,VALID,0.00195313,
2012-03-28, 03:41:05,VALID,1004.65,VALID,0,VALID,93.0037,VALID,0,VALID,23.7991,VALID,282,VALID,0.179688,
2012-03-28, 03:42:05,VALID,1004.67,VALID,0,VALID,93.0723,VALID,0.0815089,VALID,23.7991,VALID,282,VALID,0.00234375,